Location: Buckland
(65.9785°N, 161.1281°W)
Time: 15:06:26
(UTC+00:00)

Transit 4A - Pass Details

Date: 04 October 2022
Orbit: 871 x 972 km, 66.8° (Epoch: 29 November)

Event Time Altitude Azimuth Distance (km) Brightness Sun altitude
Exits shadow 14:13:00 16° 286° (WNW) 2,197 9.5 -17.7°
Maximum altitude 14:17:57 87° 199° (SSW) 897 7.8 -17.3°
Drops below altitude 10° 14:23:49 10° 111° (ESE) 2,534 10.7 -16.8°
Sets 14:26:17 0° 111° (ESE) 3,466 11.5 -16.6°
